Poughkeepsie, NY

3:40 AM EST on January 24, 2018 (GMT -0500)
Dutchess County

Weather History for KPOU - May, 2013

Change the Weather History Date:

Friday, May 10, 2013

  Actual Average Record
Temperature  
Mean Temperature 62 °F 57 °F  
Max Temperature 78 °F 70 °F 93 °F (1979)
Min Temperature 46 °F 44 °F 26 °F (1947)
Degree Days  
Heating Degree Days 3 9  
Month to date heating degree days 70 98  
Since 1 July heating degree days 5538 6037  
Cooling Degree Days 0 1  
Month to date cooling degree days 0 4  
Year to date cooling degree days 0 9  
Growing Degree Days 12 (Base 50)    
Moisture  
Dew Point 52 °F    
Average Humidity 68    
Maximum Humidity 100    
Minimum Humidity 36    
Precipitation  
Precipitation 0.00 in 0.13 in 1.92 in (1989)
Month to date precipitation 0.80 1.27  
Year to date precipitation 7.26 14.36  
Sea Level Pressure  
Sea Level Pressure 29.92 in    
Wind  
Wind Speed 2 mph (South)    
Max Wind Speed 12 mph    
Max Gust Speed 18 mph    
Visibility 9 miles    
Events      
T = Trace of Precipitation, MM = Missing Value Source: NWS Daily Summary

Daily Weather History Graph

Daily Weather History Graph

Search for Another Location

Airport or City:

Trip Planner

Search our weather history database for the weather conditions in past years. The results will help you decide how hot, cold, wet, or windy it might be!

Date:

Astronomy

May. 10, 2013 Rise Set
Actual Time 5:41 AM EDT 8:03 PM EDT
Civil Twilight 5:09 AM EDT 8:34 PM EDT
Nautical Twilight 4:31 AM EDT 9:13 PM EDT
Astronomical Twilight 3:48 AM EDT 9:56 PM EDT
Moon 6:03 AM EDT (5/10) 8:50 PM EDT (5/10)
Length of Visible Light 15h 24m
Length of Day
14h 22m
New Moon, 0% of the Moon is Illuminated
May 10
New Moon
May 18
First Quarter
May 25
Full
May 31
Last Quarter
Jun 8
New

Hourly Weather History & Observations

Time (EDT) Temp. Dew Point Humidity Pressure Visibility Wind Dir Wind Speed Gust Speed Precip Events Conditions
12:53 AM 52.0 °F 51.1 °F 97% 29.92 in 8.0 mi Calm Calm - N/A   Clear
2:33 AM 48.2 °F 48.2 °F 100% 29.93 in 1.8 mi Calm Calm - N/A   Clear
2:41 AM 48.2 °F 48.2 °F 100% 29.93 in 3.0 mi Calm Calm - N/A   Clear
2:53 AM 48.9 °F 48.0 °F 97% 29.93 in 8.0 mi Calm Calm - N/A   Clear
3:53 AM 48.0 °F 48.0 °F 100% 29.94 in 8.0 mi Calm Calm - N/A   Clear
4:53 AM 46.0 °F 45.0 °F 96% 29.94 in 5.0 mi Calm Calm - N/A   Clear
5:53 AM 46.0 °F 46.0 °F 100% 29.96 in 6.0 mi Calm Calm - N/A   Clear
6:53 AM 48.9 °F 48.0 °F 97% 29.97 in 8.0 mi Calm Calm - N/A   Clear
7:53 AM 55.9 °F 54.0 °F 93% 29.98 in 10.0 mi Calm Calm - N/A   Clear
8:53 AM 60.1 °F 55.0 °F 83% 29.98 in 10.0 mi SW 4.6 mph - N/A   Clear
9:53 AM 64.9 °F 55.0 °F 70% 29.97 in 10.0 mi Calm Calm - N/A   Clear
10:53 AM 69.1 °F 55.0 °F 61% 29.97 in 10.0 mi WSW 3.5 mph - N/A   Clear
11:53 AM 72.0 °F 54.0 °F 53% 29.95 in 10.0 mi Calm Calm - N/A   Clear
12:53 PM 75.9 °F 51.1 °F 42% 29.93 in 10.0 mi WSW 4.6 mph - N/A   Clear
1:53 PM 75.9 °F 50.0 °F 40% 29.92 in 10.0 mi SW 8.1 mph - N/A   Clear
2:53 PM 75.9 °F 51.1 °F 42% 29.92 in 10.0 mi Variable 4.6 mph - N/A   Clear
3:53 PM 78.1 °F 53.1 °F 42% 29.90 in 10.0 mi Variable 3.5 mph - N/A   Clear
4:53 PM 78.1 °F 50.0 °F 37% 29.88 in 10.0 mi South 4.6 mph - N/A   Clear
5:53 PM 77.0 °F 48.9 °F 37% 29.88 in 10.0 mi Calm Calm - N/A   Overcast
6:53 PM 73.0 °F 57.0 °F 57% 29.88 in 10.0 mi Calm Calm - N/A   Overcast
7:53 PM 71.1 °F 57.9 °F 63% 29.87 in 10.0 mi SE 3.5 mph - N/A   Scattered Clouds
8:53 PM 70.0 °F 55.9 °F 61% 29.88 in 10.0 mi SSE 4.6 mph - N/A   Clear
9:53 PM 68.0 °F 55.0 °F 63% 29.89 in 10.0 mi South 3.5 mph - N/A   Clear
10:53 PM 66.9 °F 55.0 °F 66% 29.87 in 10.0 mi SE 4.6 mph - N/A   Clear
11:53 PM 66.0 °F 55.0 °F 68% 29.86 in 10.0 mi SSE 3.5 mph - N/A   Clear